Regional Weather Roundup
Issued by NWS

Home | Current Version | Previous Version | Text Only | Print | Product List | Glossary Off
Versions: 1 2 3 4 5 6 7 8 9 10 11 12 13 14 15 16 17 18 19 20 21 22 23 24 25 26 27 28 29 30 31 32 33 34 35 36 37 38 39 40 41 42 43 44 45 46 47 48 49 50

000
ASUS45 KCYS 032210
RWRWY

WYOMING REGIONAL WEATHER ROUNDUP
NATIONAL WEATHER SERVICE CHEYENNE WY
300 PM MST TUE MAR 03 2015

NOTE:  "FAIR" INDICATES FEW OR NO CLOUDS BELOW 12,000 FEET
WITH NO SIGNIFICANT WEATHER AND/OR OBSTRUCTIONS TO VISIBILITY.

WYZ001-032300-
YELLOWSTONE NATIONAL PARK

CITY           SKY/WX    TMP DP  RH WIND       PRES   REMARKS
LK YELLOWSTONE   N/A     15  -8  35 MISG      29.74R
W YELLOWSTONE  NOT AVBL

$$
WYZ002>013-054>058-071-098>099-032300-
NORTHERN WYOMING

CITY           SKY/WX    TMP DP  RH WIND       PRES   REMARKS
JACKSON        MOSUNNY   21  12  68 SE7       29.76S WCI  13
CODY           FAIR      10   1  67 N6        29.91S WCI   1
GREYBULL       FAIR      22   0  38 NE5       29.96F WCI  16
WORLAND        CLOUDY    18   5  57 N8        29.95F WCI   8
SHERIDAN       FAIR      11  -1  58 NW12      29.99S WCI  -3
BUFFALO        FAIR       8  -1  66 N14G22    29.90F WCI  -8
GILLETTE       PTSUNNY   13   2  61 NW12G21   29.92F WCI  -1
HULETT         CLOUDY    14   0  52 NW12G21   29.93F WCI   0
NEWCASTLE      FAIR      16   0  48 NW16G26   29.93S WCI   0

$$
WYZ014>020-022>026-101>103-032300-
CENTRAL WYOMING

CITY           SKY/WX    TMP DP  RH WIND       PRES   REMARKS
BIG PINEY      FAIR      27  12  53 N16G22    29.71S WCI  15
PINEDALE       LGT SNOW  21  18  86 E10       29.72S VSB 3/4 WCI  10
DUBOIS         MOCLDY    10   1  67 SE5       29.71S WCI   2
LANDER         FAIR      14   3  61 CALM      29.84F
RIVERTON       CLOUDY    13   5  70 SE6       29.86F WCI   4
CASPER         LGT SNOW  11   3  70 E3        29.86F
DOUGLAS        FLURRIES  13   6  74 NW9       29.89F WCI   1

$$
WYZ021-027>030-104>119-032300-
SOUTHERN WYOMING

CITY           SKY/WX    TMP DP  RH WIND       PRES   REMARKS
EVANSTON       FAIR      27  16  63 W18       29.77R WCI  14
FORT BRIDGER   CLOUDY    27  23  87 NW21      29.78R WCI  13
ROCK SPRINGS   CLOUDY    15   9  76 NE12      29.75R WCI   2
DIXON          CLOUDY    27  23  83 NW20      29.69R VSB 1   WCI  14
RAWLINS        LGT SNOW  12   6  77 N12       29.73R VSB 1   WCI  -2
SARATOGA       LGT SNOW  18  12  79 N10       29.69S VSB 1   WCI   6
LARAMIE        FLURRIES  18  11  74 S21       29.63F WCI   1
CHEYENNE       LGT SNOW  13   4  67 NE7       29.77S WCI   3
TORRINGTON     CLOUDY    18   6  59 N8        29.92R WCI   8
PINE BLUFFS    CLOUDY    18   9  68 N7        29.85F WCI   8

$$


USA.gov is the U.S. government's official web portal to all federal, state and local government web resources and services.